Portada
METAR-TAF:

METAR-TAF

Aeropuertos :

Smith Field

Siloam Springs, Arkansas, Estados Unidos

latitud: 36-12N, longitud: 094-29W, altitud: 300 m

Observación

El informe se hizo hace 49 minutos, a las 05:56 UTC
Viento 5 kt del este-sureste
Temperatura 22°C
Humedad 88%
Presión 1015 hPa
Visibilidad: 16.1 km
Cielo despejado

METAR: KSLG 070556Z AUTO 12005KT 10SM CLR 22/20 A2996 RMK AO2 SLP132 T02220200 10311 20217 403280217 51001 TSNO

Hora: 01:45 (06:45 UTC)


TAF: falta

Observaciones y pronósticos meteorológicos de más de 4000 aeropuertos (mensajes METAR y TAF).

Los puntos amarillos y rojos representan las estaciones disponibles.

Ponga el ratón en el punto deseado para ver el nombre de la estación.

Haga clic para ver las observaciones y los pronósticos meteorológicos.

Para cambiar el mapa : haga clic en los botones verdes con una cruz de color negro para hacer un zoom, en el botón verde con un guión para alejar o en las flechas verdes para mapas adyacentes.


METAR-TAF: